BJN099 GMMN-LPMA

Flight info

Callsign BJN099
Flight time 1h 24m
Altitude 39000
Route RAVOL DCT MOKRI DCT LUKAN DCT OTZIL
Aircraft B737/M-SDE2E3FGHIRWXY/LB1

Departure

Time 2026-05-07 17:32
Airport Mohammed V International Airport (GMMN)

Arrival

Time 2026-05-07 18:57
Airport Cristiano Ronaldo International Airport (LPMA)
Time Latitude Longitude Altitude Speed Heading
2026-05-07 16:38 33.36223 -7.57977 652 ft 0 kts 73°
2026-05-07 17:13 33.36222 -7.57979 652 ft 2 kts 73°
2026-05-07 17:13 33.36215 -7.58009 656 ft 4 kts 73°
2026-05-07 17:13 33.36209 -7.58033 653 ft 3 kts 75°
2026-05-07 17:13 33.36207 -7.58064 655 ft 4 kts 98°
2026-05-07 17:14 33.36209 -7.58083 655 ft 1 kts 95°
2026-05-07 17:14 33.36209 -7.58085 655 ft 0 kts 95°
2026-05-07 17:18 33.36209 -7.58082 655 ft 1 kts 98°
2026-05-07 17:18 33.36196 -7.58065 654 ft 5 kts 146°
2026-05-07 17:18 33.36150 -7.58046 652 ft 9 kts 164°
2026-05-07 17:18 33.36066 -7.58019 652 ft 15 kts 165°
2026-05-07 17:19 33.35950 -7.57981 653 ft 20 kts 165°
2026-05-07 17:19 33.35808 -7.57935 653 ft 22 kts 165°
2026-05-07 17:19 33.35681 -7.57894 652 ft 14 kts 165°
2026-05-07 17:19 33.35618 -7.57908 652 ft 10 kts 243°
2026-05-07 17:20 33.35599 -7.57983 653 ft 8 kts 255°
2026-05-07 17:20 33.35599 -7.57986 653 ft 0 kts 255°
2026-05-07 17:20 33.35598 -7.57988 652 ft 1 kts 255°
2026-05-07 17:21 33.35595 -7.58001 653 ft 3 kts 255°
2026-05-07 17:21 33.35582 -7.58051 653 ft 7 kts 251°
2026-05-07 17:21 33.35570 -7.58097 653 ft 4 kts 254°
2026-05-07 17:21 33.35570 -7.58099 653 ft 0 kts 254°
2026-05-07 17:27 33.35568 -7.58104 651 ft 3 kts 254°
2026-05-07 17:27 33.35554 -7.58163 652 ft 10 kts 254°
2026-05-07 17:28 33.35547 -7.58194 650 ft 0 kts 254°
2026-05-07 17:30 33.35535 -7.58241 648 ft 13 kts 254°
2026-05-07 17:30 33.35511 -7.58342 647 ft 9 kts 255°
2026-05-07 17:30 33.35522 -7.58365 647 ft 3 kts 341°
2026-05-07 17:31 33.35525 -7.58366 647 ft 0 kts 344°
2026-05-07 17:32 33.35554 -7.58376 645 ft 26 kts 344°
2026-05-07 17:32 33.36094 -7.58561 645 ft 131 kts 344°
2026-05-07 17:32 33.37167 -7.58929 1284 ft 172 kts 344°
2026-05-07 17:32 33.38225 -7.59408 2953 ft 160 kts 328°
2026-05-07 17:33 33.38796 -7.60517 4346 ft 160 kts 284°
2026-05-07 17:33 33.39018 -7.61955 4886 ft 196 kts 278°
2026-05-07 17:33 33.39256 -7.63739 5029 ft 241 kts 278°
2026-05-07 17:33 33.39537 -7.65828 5466 ft 267 kts 278°
2026-05-07 17:34 33.39850 -7.68063 6451 ft 275 kts 278°
2026-05-07 17:34 33.40173 -7.70283 7847 ft 267 kts 276°
2026-05-07 17:34 33.40499 -7.72495 9034 ft 272 kts 276°
2026-05-07 17:34 33.40834 -7.74730 10195 ft 275 kts 276°
2026-05-07 17:35 33.41183 -7.77060 10823 ft 298 kts 276°
2026-05-07 17:35 33.41569 -7.79644 11063 ft 331 kts 276°
2026-05-07 17:35 33.41993 -7.82440 11673 ft 348 kts 277°
2026-05-07 17:35 33.42430 -7.85271 12608 ft 353 kts 276°
2026-05-07 17:36 33.42882 -7.88178 13638 ft 356 kts 276°
2026-05-07 17:36 33.43336 -7.91110 14436 ft 361 kts 277°
2026-05-07 17:36 33.43794 -7.94067 14805 ft 362 kts 277°
2026-05-07 17:36 33.44253 -7.97041 14921 ft 364 kts 277°
2026-05-07 17:37 33.44712 -8.00015 14931 ft 363 kts 276°
2026-05-07 17:37 33.45169 -8.02988 14936 ft 363 kts 276°
2026-05-07 17:37 33.45624 -8.05958 14944 ft 363 kts 276°
2026-05-07 17:37 33.46078 -8.08931 14997 ft 366 kts 276°
2026-05-07 17:38 33.46531 -8.11908 15745 ft 369 kts 277°
2026-05-07 17:38 33.46989 -8.14918 16849 ft 366 kts 277°
2026-05-07 17:38 33.47445 -8.17915 17852 ft 367 kts 277°
2026-05-07 17:38 33.47903 -8.20933 18664 ft 370 kts 277°
2026-05-07 17:39 33.48364 -8.23981 19404 ft 374 kts 276°
2026-05-07 17:39 33.48828 -8.27054 20165 ft 377 kts 276°
2026-05-07 17:39 33.49296 -8.30154 20944 ft 379 kts 276°
2026-05-07 17:39 33.49766 -8.33274 21703 ft 382 kts 276°
2026-05-07 17:40 33.50240 -8.36421 22432 ft 386 kts 276°
2026-05-07 17:40 33.50710 -8.39555 23107 ft 389 kts 276°
2026-05-07 17:40 33.51179 -8.42766 23717 ft 392 kts 273°
2026-05-07 17:40 33.51190 -8.46011 24301 ft 389 kts 260°
2026-05-07 17:41 33.50642 -8.49175 24888 ft 389 kts 252°
2026-05-07 17:41 33.49621 -8.52168 25449 ft 390 kts 240°
2026-05-07 17:41 33.48227 -8.54967 26004 ft 392 kts 239°
2026-05-07 17:41 33.46783 -8.57754 26530 ft 396 kts 238°
2026-05-07 17:42 33.45318 -8.60561 27033 ft 399 kts 238°
2026-05-07 17:42 33.43846 -8.63391 27522 ft 402 kts 239°
2026-05-07 17:42 33.42370 -8.66250 28003 ft 405 kts 239°
2026-05-07 17:42 33.40909 -8.69093 28468 ft 408 kts 239°
2026-05-07 17:43 33.39424 -8.71994 28923 ft 411 kts 239°
2026-05-07 17:43 33.37933 -8.74911 29451 ft 411 kts 239°
2026-05-07 17:43 33.36436 -8.77839 29853 ft 414 kts 239°
2026-05-07 17:43 33.34931 -8.80783 30277 ft 415 kts 239°
2026-05-07 17:44 33.33426 -8.83722 30782 ft 413 kts 239°
2026-05-07 17:44 33.31931 -8.86640 31328 ft 410 kts 239°
2026-05-07 17:44 33.30443 -8.89541 31813 ft 409 kts 239°
2026-05-07 17:44 33.28956 -8.92438 32237 ft 409 kts 239°
2026-05-07 17:45 33.27491 -8.95292 32662 ft 408 kts 239°
2026-05-07 17:45 33.26010 -8.98174 33137 ft 406 kts 239°
2026-05-07 17:45 33.24532 -9.01047 33592 ft 405 kts 240°
2026-05-07 17:45 33.23058 -9.03911 33997 ft 405 kts 240°
2026-05-07 17:46 33.21586 -9.06771 34367 ft 403 kts 240°
2026-05-07 17:46 33.20119 -9.09615 34797 ft 401 kts 239°
2026-05-07 17:46 33.18671 -9.12431 35299 ft 395 kts 241°
2026-05-07 17:46 33.17548 -9.15402 35709 ft 393 kts 251°
2026-05-07 17:47 33.16868 -9.18559 36050 ft 393 kts 257°
2026-05-07 17:47 33.16505 -9.21788 36373 ft 394 kts 264°
2026-05-07 17:47 33.16601 -9.25067 36739 ft 395 kts 271°
2026-05-07 17:47 33.16844 -9.28282 37134 ft 393 kts 272°
2026-05-07 17:48 33.17111 -9.31513 37500 ft 391 kts 272°
2026-05-07 17:48 33.17381 -9.34736 37827 ft 390 kts 272°
2026-05-07 17:48 33.17644 -9.37946 38169 ft 388 kts 272°
2026-05-07 17:48 33.17901 -9.41145 38526 ft 386 kts 272°
2026-05-07 17:49 33.18150 -9.44328 38792 ft 385 kts 272°
2026-05-07 17:49 33.18395 -9.47509 38940 ft 386 kts 271°
2026-05-07 17:49 33.18877 -9.53915 38949 ft 387 kts 271°
2026-05-07 17:50 33.19350 -9.60245 38957 ft 384 kts 271°
2026-05-07 17:50 33.19819 -9.66582 38956 ft 382 kts 271°
2026-05-07 17:51 33.20282 -9.72894 38956 ft 381 kts 271°
2026-05-07 17:51 33.20741 -9.79195 38957 ft 381 kts 271°
2026-05-07 17:52 33.21197 -9.85493 38978 ft 381 kts 271°
2026-05-07 17:52 33.21647 -9.91756 38966 ft 381 kts 271°
2026-05-07 17:53 33.22097 -9.98067 38958 ft 382 kts 271°
2026-05-07 17:53 33.22545 -10.04389 38962 ft 382 kts 271°
2026-05-07 17:54 33.22990 -10.10711 38961 ft 382 kts 271°
2026-05-07 17:54 33.23432 -10.17035 38963 ft 382 kts 271°
2026-05-07 17:55 33.23868 -10.23325 38971 ft 382 kts 271°
2026-05-07 17:55 33.24304 -10.29658 38965 ft 382 kts 271°
2026-05-07 17:56 33.24737 -10.35986 38972 ft 382 kts 271°
2026-05-07 17:56 33.25165 -10.42310 38984 ft 382 kts 270°
2026-05-07 17:57 33.25519 -10.47568 38970 ft 382 kts 270°
2026-05-07 17:57 33.26010 -10.54913 38967 ft 382 kts 270°
2026-05-07 17:58 33.26429 -10.61230 38975 ft 381 kts 270°
2026-05-07 17:58 33.26844 -10.67527 38968 ft 380 kts 270°
2026-05-07 17:59 33.27254 -10.73816 38969 ft 379 kts 270°
2026-05-07 17:59 33.27660 -10.80086 38969 ft 378 kts 270°
2026-05-07 18:00 33.28061 -10.86301 38972 ft 377 kts 270°
2026-05-07 18:00 33.28458 -10.92550 38975 ft 377 kts 270°
2026-05-07 18:01 33.28852 -10.98794 38982 ft 377 kts 269°
2026-05-07 18:01 33.29243 -11.05038 38975 ft 377 kts 269°
2026-05-07 18:02 33.29824 -11.14401 38975 ft 376 kts 269°
2026-05-07 18:03 33.30205 -11.20599 38972 ft 376 kts 269°
2026-05-07 18:03 33.30586 -11.26837 38976 ft 376 kts 269°
2026-05-07 18:04 33.30963 -11.33081 38989 ft 377 kts 269°
2026-05-07 18:04 33.31338 -11.39337 38982 ft 378 kts 269°
2026-05-07 18:05 33.31708 -11.45565 38981 ft 378 kts 269°
2026-05-07 18:05 33.32078 -11.51842 38978 ft 379 kts 269°
2026-05-07 18:06 33.32445 -11.58134 38978 ft 379 kts 269°
2026-05-07 18:06 33.32810 -11.64430 38978 ft 380 kts 269°
2026-05-07 18:07 33.33172 -11.70729 38977 ft 380 kts 269°
2026-05-07 18:07 33.33528 -11.76987 38978 ft 380 kts 269°
2026-05-07 18:08 33.33883 -11.83294 38980 ft 380 kts 269°
2026-05-07 18:08 33.34236 -11.89600 38981 ft 380 kts 269°
2026-05-07 18:09 33.34585 -11.95900 38980 ft 380 kts 269°
2026-05-07 18:09 33.34931 -12.02206 38978 ft 380 kts 268°
2026-05-07 18:10 33.35273 -12.08507 38989 ft 380 kts 268°
2026-05-07 18:10 33.35613 -12.14833 39017 ft 382 kts 268°
2026-05-07 18:11 33.35949 -12.21148 38988 ft 384 kts 268°
2026-05-07 18:11 33.36287 -12.27544 38982 ft 386 kts 268°
2026-05-07 18:12 33.36623 -12.33968 38979 ft 388 kts 268°
2026-05-07 18:12 33.36957 -12.40416 38977 ft 389 kts 268°
2026-05-07 18:13 33.37289 -12.46890 38985 ft 390 kts 268°
2026-05-07 18:13 33.37616 -12.53335 38979 ft 391 kts 268°
2026-05-07 18:14 33.37943 -12.59835 38978 ft 391 kts 268°
2026-05-07 18:14 33.38266 -12.66328 38978 ft 391 kts 268°
2026-05-07 18:15 33.38585 -12.72817 38977 ft 390 kts 267°
2026-05-07 18:15 33.38900 -12.79296 38993 ft 390 kts 267°
2026-05-07 18:16 33.39210 -12.85737 38989 ft 391 kts 267°
2026-05-07 18:16 33.39519 -12.92228 38982 ft 391 kts 267°
2026-05-07 18:17 33.39824 -12.98720 38978 ft 391 kts 267°
2026-05-07 18:17 33.40126 -13.05216 38978 ft 391 kts 267°
2026-05-07 18:18 33.40423 -13.11668 38983 ft 391 kts 267°
2026-05-07 18:18 33.40719 -13.18178 38987 ft 392 kts 267°
2026-05-07 18:19 33.41013 -13.24706 38982 ft 393 kts 267°
2026-05-07 18:19 33.41304 -13.31252 38980 ft 394 kts 267°
2026-05-07 18:20 33.41592 -13.37810 38976 ft 395 kts 267°
2026-05-07 18:20 33.41877 -13.44374 38979 ft 395 kts 267°
2026-05-07 18:21 33.41917 -13.50873 38993 ft 390 kts 258°
2026-05-07 18:21 33.40881 -13.57246 38545 ft 394 kts 254°
2026-05-07 18:21 33.40319 -13.60443 38145 ft 392 kts 254°
2026-05-07 18:22 33.39766 -13.63611 37734 ft 387 kts 254°
2026-05-07 18:22 33.39405 -13.65693 37465 ft 385 kts 254°
2026-05-07 18:22 33.38679 -13.69890 36946 ft 385 kts 254°
2026-05-07 18:22 33.38137 -13.73025 36561 ft 385 kts 254°
2026-05-07 18:23 33.37604 -13.76118 36194 ft 384 kts 254°
2026-05-07 18:23 33.37065 -13.79243 35824 ft 383 kts 253°
2026-05-07 18:23 33.36526 -13.82361 35459 ft 383 kts 253°
2026-05-07 18:23 33.35989 -13.85475 35098 ft 382 kts 253°
2026-05-07 18:24 33.35451 -13.88583 34778 ft 382 kts 254°
2026-05-07 18:24 33.34912 -13.91693 34429 ft 382 kts 253°
2026-05-07 18:24 33.34371 -13.94806 34085 ft 382 kts 253°
2026-05-07 18:24 33.33829 -13.97922 33696 ft 383 kts 253°
2026-05-07 18:25 33.33287 -14.01036 33301 ft 384 kts 253°
2026-05-07 18:25 33.32741 -14.04166 32906 ft 385 kts 253°
2026-05-07 18:25 33.32193 -14.07304 32520 ft 386 kts 253°
2026-05-07 18:25 33.31642 -14.10449 32141 ft 388 kts 253°
2026-05-07 18:26 33.31088 -14.13611 31761 ft 389 kts 253°
2026-05-07 18:26 33.30531 -14.16786 31388 ft 391 kts 253°
2026-05-07 18:26 33.29978 -14.19932 31027 ft 393 kts 253°
2026-05-07 18:26 33.29413 -14.23135 30703 ft 395 kts 253°
2026-05-07 18:27 33.28845 -14.26357 30351 ft 398 kts 253°
2026-05-07 18:27 33.28271 -14.29604 29982 ft 401 kts 253°
2026-05-07 18:27 33.27694 -14.32870 29563 ft 403 kts 253°
2026-05-07 18:27 33.27113 -14.36146 29153 ft 404 kts 253°
2026-05-07 18:28 33.26529 -14.39438 28749 ft 405 kts 253°
2026-05-07 18:28 33.25944 -14.42734 28349 ft 407 kts 253°
2026-05-07 18:28 33.25355 -14.46042 27951 ft 408 kts 253°
2026-05-07 18:28 33.24764 -14.49360 27563 ft 409 kts 253°
2026-05-07 18:29 33.24178 -14.52642 27189 ft 410 kts 254°
2026-05-07 18:29 33.23582 -14.55975 26809 ft 411 kts 254°
2026-05-07 18:29 33.22981 -14.59323 26453 ft 413 kts 255°
2026-05-07 18:29 33.22389 -14.62631 26069 ft 400 kts 255°
2026-05-07 18:30 33.21820 -14.65818 25689 ft 386 kts 255°
2026-05-07 18:30 33.21268 -14.68899 25325 ft 376 kts 255°
2026-05-07 18:30 33.20721 -14.71937 24970 ft 373 kts 255°
2026-05-07 18:30 33.20173 -14.74962 24620 ft 373 kts 256°
2026-05-07 18:31 33.19625 -14.77986 24275 ft 372 kts 256°
2026-05-07 18:31 33.19078 -14.80999 23934 ft 371 kts 256°
2026-05-07 18:31 33.18532 -14.84008 23594 ft 371 kts 256°
2026-05-07 18:31 33.17994 -14.86968 23196 ft 370 kts 256°
2026-05-07 18:32 33.17449 -14.89961 22788 ft 369 kts 256°
2026-05-07 18:32 33.16906 -14.92945 22386 ft 367 kts 256°
2026-05-07 18:32 33.16362 -14.95925 21992 ft 367 kts 258°
2026-05-07 18:32 33.15819 -14.98898 21596 ft 367 kts 258°
2026-05-07 18:33 33.15276 -15.01864 21220 ft 366 kts 258°
2026-05-07 18:33 33.14734 -15.04825 20841 ft 365 kts 258°
2026-05-07 18:33 33.14192 -15.07779 20462 ft 363 kts 258°
2026-05-07 18:33 33.13656 -15.10699 20082 ft 356 kts 258°
2026-05-07 18:34 33.13129 -15.13562 19707 ft 351 kts 259°
2026-05-07 18:34 33.12603 -15.16418 19351 ft 355 kts 259°
2026-05-07 18:35 33.11001 -15.25097 18281 ft 356 kts 259°
2026-05-07 18:35 33.10466 -15.27989 17881 ft 356 kts 259°
2026-05-07 18:35 33.09945 -15.30792 17475 ft 345 kts 259°
2026-05-07 18:35 33.09433 -15.33541 17075 ft 334 kts 259°
2026-05-07 18:36 33.08936 -15.36209 16680 ft 325 kts 259°
2026-05-07 18:36 33.08453 -15.38803 16291 ft 316 kts 259°
2026-05-07 18:36 33.07982 -15.41331 15908 ft 309 kts 259°
2026-05-07 18:36 33.07520 -15.43803 15527 ft 302 kts 259°
2026-05-07 18:37 33.07067 -15.46229 15156 ft 297 kts 259°
2026-05-07 18:37 33.06623 -15.48604 14794 ft 291 kts 260°
2026-05-07 18:37 33.06185 -15.50945 14436 ft 287 kts 260°
2026-05-07 18:37 33.05754 -15.53248 14071 ft 283 kts 260°
2026-05-07 18:38 33.05327 -15.55522 13700 ft 279 kts 260°
2026-05-07 18:38 33.04907 -15.57759 13303 ft 276 kts 260°
2026-05-07 18:38 33.04495 -15.59954 12910 ft 273 kts 259°
2026-05-07 18:38 33.04082 -15.62152 12516 ft 270 kts 259°
2026-05-07 18:39 33.03673 -15.64327 12133 ft 268 kts 259°
2026-05-07 18:39 33.03266 -15.66484 11754 ft 266 kts 259°
2026-05-07 18:39 33.02862 -15.68628 11376 ft 264 kts 259°
2026-05-07 18:39 33.02459 -15.70758 11008 ft 263 kts 259°
2026-05-07 18:40 33.02060 -15.72871 10637 ft 261 kts 259°
2026-05-07 18:40 33.01662 -15.74971 10271 ft 259 kts 259°
2026-05-07 18:40 33.01266 -15.77062 9918 ft 258 kts 259°
2026-05-07 18:40 33.00870 -15.79149 9526 ft 258 kts 259°
2026-05-07 18:41 33.00482 -15.81198 9137 ft 257 kts 259°
2026-05-07 18:41 33.00088 -15.83269 8739 ft 256 kts 259°
2026-05-07 18:41 32.99696 -15.85332 8351 ft 255 kts 259°
2026-05-07 18:41 32.99304 -15.87388 7977 ft 254 kts 258°
2026-05-07 18:42 32.98914 -15.89438 7589 ft 254 kts 258°
2026-05-07 18:42 32.98524 -15.91483 7212 ft 253 kts 258°
2026-05-07 18:42 32.98134 -15.93521 6848 ft 252 kts 258°
2026-05-07 18:42 32.97746 -15.95554 6482 ft 251 kts 258°
2026-05-07 18:43 32.97358 -15.97582 6104 ft 251 kts 257°
2026-05-07 18:43 32.96971 -15.99603 5721 ft 250 kts 257°
2026-05-07 18:43 32.96590 -16.01590 5350 ft 250 kts 257°
2026-05-07 18:43 32.96207 -16.03586 4954 ft 244 kts 257°
2026-05-07 18:44 32.95834 -16.05529 4562 ft 238 kts 257°
2026-05-07 18:44 32.95470 -16.07423 4180 ft 231 kts 257°
2026-05-07 18:44 32.95114 -16.09277 3819 ft 230 kts 256°
2026-05-07 18:44 32.94759 -16.11120 3460 ft 227 kts 256°
2026-05-07 18:45 32.94406 -16.12949 3109 ft 228 kts 256°
2026-05-07 18:45 32.94045 -16.14822 3067 ft 235 kts 256°
2026-05-07 18:45 32.93682 -16.16704 3038 ft 230 kts 256°
2026-05-07 18:45 32.93331 -16.18522 3031 ft 227 kts 257°
2026-05-07 18:46 32.92978 -16.20347 3042 ft 226 kts 256°
2026-05-07 18:46 32.92623 -16.22179 3038 ft 228 kts 256°
2026-05-07 18:46 32.92266 -16.24027 3041 ft 230 kts 256°
2026-05-07 18:46 32.91906 -16.25881 3040 ft 230 kts 256°
2026-05-07 18:47 32.91548 -16.27730 3035 ft 229 kts 256°
2026-05-07 18:47 32.91190 -16.29573 3034 ft 228 kts 256°
2026-05-07 18:47 32.90833 -16.31411 3031 ft 227 kts 256°
2026-05-07 18:47 32.90477 -16.33239 3038 ft 227 kts 256°
2026-05-07 18:48 32.90122 -16.35065 3036 ft 227 kts 257°
2026-05-07 18:48 32.89760 -16.36923 3037 ft 233 kts 257°
2026-05-07 18:48 32.89398 -16.38780 3042 ft 234 kts 257°
2026-05-07 18:48 32.89031 -16.40660 3039 ft 233 kts 257°
2026-05-07 18:49 32.88664 -16.42540 3043 ft 233 kts 257°
2026-05-07 18:49 32.88296 -16.44424 3047 ft 234 kts 257°
2026-05-07 18:49 32.87927 -16.46310 3043 ft 235 kts 257°
2026-05-07 18:49 32.87557 -16.48201 3041 ft 235 kts 257°
2026-05-07 18:50 32.87189 -16.50083 3054 ft 232 kts 257°
2026-05-07 18:50 32.86832 -16.51905 3029 ft 217 kts 257°
2026-05-07 18:50 32.86502 -16.53580 3015 ft 200 kts 257°
2026-05-07 18:50 32.86194 -16.55147 3028 ft 194 kts 257°
2026-05-07 18:51 32.85888 -16.56706 3040 ft 199 kts 257°
2026-05-07 18:51 32.85569 -16.58317 3050 ft 201 kts 255°
2026-05-07 18:51 32.84858 -16.59738 3045 ft 203 kts 224°
2026-05-07 18:51 32.83796 -16.60859 3041 ft 205 kts 223°
2026-05-07 18:52 32.82743 -16.61977 3039 ft 201 kts 224°
2026-05-07 18:52 32.81719 -16.63066 3006 ft 195 kts 224°
2026-05-07 18:52 32.80720 -16.64129 2835 ft 187 kts 225°
2026-05-07 18:52 32.79790 -16.65120 2683 ft 175 kts 225°
2026-05-07 18:53 32.78929 -16.66040 2544 ft 157 kts 225°
2026-05-07 18:53 32.78155 -16.66865 2418 ft 145 kts 226°
2026-05-07 18:53 32.77437 -16.67631 2341 ft 136 kts 226°
2026-05-07 18:53 32.76747 -16.68369 2283 ft 141 kts 225°
2026-05-07 18:54 32.75969 -16.69205 2405 ft 151 kts 225°
2026-05-07 18:54 32.75244 -16.69985 2350 ft 133 kts 228°
2026-05-07 18:54 32.74595 -16.70745 2086 ft 131 kts 231°
2026-05-07 18:54 32.73992 -16.71550 1838 ft 131 kts 234°
2026-05-07 18:55 32.73432 -16.72381 1540 ft 126 kts 237°
2026-05-07 18:55 32.72900 -16.73198 1220 ft 125 kts 234°
2026-05-07 18:55 32.72396 -16.74024 935 ft 124 kts 234°
2026-05-07 18:55 32.71888 -16.74847 651 ft 129 kts 232°
2026-05-07 18:56 32.71289 -16.75661 430 ft 133 kts 228°
2026-05-07 18:56 32.70614 -16.76476 240 ft 141 kts 226°
2026-05-07 18:56 32.69962 -16.77241 194 ft 112 kts 224°
2026-05-07 18:56 32.69561 -16.77712 174 ft 50 kts 225°
2026-05-07 18:57 32.69357 -16.77953 168 ft 13 kts 225°
2026-05-07 18:57 32.69290 -16.77920 168 ft 13 kts 102°
2026-05-07 18:57 32.69315 -16.77824 168 ft 13 kts 44°
2026-05-07 18:57 32.69348 -16.77784 168 ft 4 kts 56°
2026-05-07 18:58 32.69337 -16.77758 168 ft 4 kts 137°
2026-05-07 18:58 32.69318 -16.77737 168 ft 4 kts 139°
2026-05-07 18:58 32.69306 -16.77725 168 ft 0 kts 138°